Overview Statistics Trail Chart Weather Telemetry Raw packets
 

This is the latest recevied weather packets stored in our database for station/object WA1NHP. If no packets are shown the sender has not sent any weather packets the latest 10 day(s).

<< 34 35 36 37 38 39 40 >>
Time Temp. Humidity Pressure Rain* Wind** Luminosity Snow
1788104644 23.33° C 73% 1023.9 hPa 0 mm - 466 W/m² -
1788104044 22.22° C 77% 1023.9 hPa 0 mm - 666 W/m² -
1788103444 21.67° C 74% 1023.9 hPa 0 mm - 425 W/m² -
1788102844 21.11° C 73% 1023.9 hPa 0 mm - 301 W/m² -
1788102244 21.67° C 69% 1023.9 hPa 0 mm - 181 W/m² -
1788101644 21.67° C 74% 1023.9 hPa 0 mm - 575 W/m² -
1788101044 21.67° C 73% 1023.9 hPa 0 mm - 318 W/m² -
1788100444 21.67° C 71% 1023.9 hPa 0 mm - 605 W/m² -
1788099844 21.11° C 73% 1023.9 hPa 0 mm - 279 W/m² -
1788099244 21.11° C 75% 1023.9 hPa 0 mm - 357 W/m² -
1788098644 21.11° C 75% 1023.9 hPa 0 mm - 343 W/m² -
1788098045 20.56° C 78% 1023.9 hPa 0 mm - 311 W/m² -
1788097444 20° C 77% 1023.9 hPa 0 mm - 279 W/m² -
1788096843 19.44° C 78% 1023.9 hPa 0 mm - 160 W/m² -
1788096244 18.89° C 77% 1023.9 hPa 0 mm - 163 W/m² -
1788095644 18.89° C 80% 1023.9 hPa 0 mm - 77 W/m² -
1788095044 18.33° C 81% 1023.9 hPa 0 mm - 121 W/m² -
1788094444 17.78° C 84% 1023.9 hPa 0 mm - 186 W/m² -
1788093843 16.67° C 87% 1023.9 hPa 0 mm - 107 W/m² -
1788093244 16.67° C 86% 1023.9 hPa 0 mm - 79 W/m² -
1788092644 16.67° C 88% 1023.9 hPa 0 mm - 74 W/m² -
1788092043 16.11° C 89% 1023.9 hPa 0 mm - 98 W/m² -
1788091444 15.56° C 90% 1023.9 hPa 0 mm - 72 W/m² -
1788090846 15° C 90% 1023.9 hPa 0 mm - 58 W/m² -
1788090244 14.44° C 90% 1023.9 hPa 0 mm - 49 W/m² -

* Rain latest hour (hover to see other rain measurements)
** Current wind speed in m/s (hover to see current wind gust speed)